Weather History for Burlington, CO

Change the Weather History Date:

Wednesday, December 5, 2012

  Actual Average Record
Temperature  
Mean Temperature 48 °F 30 °F  
Max Temperature 66 °F 44 °F 75 °F (1939)
Min Temperature 30 °F 17 °F -11 °F (1972)
Degree Days  
Heating Degree Days 16    
Moisture  
Dew Point 22 °F    
Average Humidity 41    
Maximum Humidity 64    
Minimum Humidity 18    
Precipitation  
Precipitation 0.00 in 0.02 in 0.20 in (1960)
Month to date precipitation 0.00 0.11  
Year to date precipitation 10.56 17.14  
Sea Level Pressure  
Sea Level Pressure 29.93 in    
Wind  
Wind Speed 10 mph (SW)    
Max Wind Speed 17 mph    
Max Gust Speed 21 mph    
Visibility 10 miles    
Events      
T = Trace of Precipitation, MM = Missing Value Source: NWS Daily Summary

Daily Weather History Graph

Daily Weather History Graph

Search for Another Location

Airport:

Trip Planner

Search our weather history database for the weather conditions in past years. The results will help you decide how hot, cold, wet, or windy it might be!

Date:

Astronomy

Dec. 05, 2012 Rise Set
Actual Time 6:53 AM MST 4:25 PM MST
Civil Twilight 6:24 AM MST 4:55 PM MST
Nautical Twilight 5:50 AM MST 5:29 PM MST
Astronomical Twilight 5:18 AM MST 6:01 PM MST
Moon 11:15 PM MST (12/5) 11:20 AM MST (12/5)
Length of Visible Light 10h 31m
Length of Day
9h 31m
Waning Gibbous, 59% of the Moon is Illuminated
Dec 5
Waning Gibbous
Dec 6
Last Quarter
Dec 13
New
Dec 19
First Quarter
Dec 28
Full

Hourly Weather History & Observations

Time (MST) Temp. Windchill Dew Point Humidity Pressure Visibility Wind Dir Wind Speed Gust Speed Precip Events Conditions
12:53 AM 34.0 °F 26.6 °F 21.9 °F 61% 30.13 in 10.0 mi SW 9.2 mph - N/A   Clear
1:53 AM 32.0 °F 24.2 °F 21.0 °F 64% 30.14 in 10.0 mi SW 9.2 mph - N/A   Clear
2:53 AM 32.0 °F 24.2 °F 21.0 °F 64% 30.12 in 10.0 mi West 9.2 mph - N/A   Clear
3:53 AM 33.1 °F 26.1 °F 21.0 °F 61% 30.11 in 10.0 mi West 8.1 mph - N/A   Clear
4:53 AM 36.0 °F 27.5 °F 21.9 °F 57% 30.13 in 10.0 mi West 12.7 mph - N/A   Clear
5:53 AM 36.0 °F 29.0 °F 21.9 °F 57% 30.11 in 10.0 mi SW 9.2 mph - N/A   Clear
7:53 AM 34.0 °F 27.2 °F 21.0 °F 59% 30.12 in 10.0 mi WSW 8.1 mph - N/A   Clear
8:53 AM 50.0 °F - 23.0 °F 35% 30.05 in 10.0 mi WSW 9.2 mph - N/A   Clear
9:53 AM 60.1 °F - 21.0 °F 22% 30.00 in 10.0 mi SW 17.3 mph 20.7 mph N/A   Clear
10:53 AM 61.0 °F - 21.0 °F 21% 29.96 in 10.0 mi SW 13.8 mph - N/A   Clear
11:53 AM 64.0 °F - 19.9 °F 18% 29.89 in 10.0 mi SSW 16.1 mph - N/A   Clear
12:53 PM 62.1 °F - 21.0 °F 21% 29.87 in 10.0 mi SSW 12.7 mph - N/A   Clear
1:53 PM 66.0 °F - 21.0 °F 18% 29.84 in 10.0 mi SSW 16.1 mph - N/A   Clear
2:53 PM 64.0 °F - 21.0 °F 19% 29.83 in 10.0 mi SSW 11.5 mph - N/A   Clear
3:53 PM 57.9 °F - 21.9 °F 25% 29.83 in 10.0 mi South 10.4 mph - N/A   Clear
4:53 PM 51.1 °F - 21.0 °F 31% 29.83 in 10.0 mi South 11.5 mph - N/A   Clear
5:53 PM 51.1 °F - 23.0 °F 33% 29.82 in 10.0 mi South 13.8 mph - N/A   Clear
6:53 PM 50.0 °F - 26.1 °F 39% 29.82 in 10.0 mi South 12.7 mph - N/A   Clear
7:53 PM 48.0 °F - 26.1 °F 42% 29.81 in 10.0 mi South 9.2 mph - N/A   Clear
8:53 PM 44.1 °F - 24.1 °F 45% 29.76 in 10.0 mi Calm Calm - N/A   Clear
9:53 PM 42.1 °F 36.1 °F 24.1 °F 49% 29.74 in 10.0 mi WSW 10.4 mph - N/A   Clear
10:53 PM 43.0 °F 38.8 °F 25.0 °F 49% 29.76 in 10.0 mi NNW 6.9 mph - N/A   Clear
11:53 PM 39.9 °F 33.9 °F 24.1 °F 53% 29.77 in 10.0 mi NNW 9.2 mph - N/A   Clear